Spartanburg, SC

3:40 AM EDT on July 25, 2017 (GMT -0400)
Spartanburg Downtown Memorial

Weather History for KSPA - April, 2013

Change the Weather History Date:

Sunday, April 28, 2013

  Actual Average (KGSP) Record (KGSP)
Temperature  
Mean Temperature 54 °F -  
Max Temperature 55 °F 74 °F 90 °F (1943)
Min Temperature 53 °F 49 °F 36 °F (1898)
Degree Days  
Heating Degree Days 11    
Growing Degree Days 4 (Base 50)    
Moisture  
Dew Point 55 °F    
Average Humidity 100    
Maximum Humidity 100    
Minimum Humidity 100    
Precipitation  
Precipitation 0.00 in - - ()
Sea Level Pressure  
Sea Level Pressure 30.15 in    
Wind  
Wind Speed 4 mph (NNE)    
Max Wind Speed 13 mph    
Max Gust Speed 16 mph    
Visibility 6 miles    
Events Rain    
Averages and records for this station are not official NWS values.
T = Trace of Precipitation, MM = Missing Value Source: NWS Daily Summary

Daily Weather History Graph

Daily Weather History Graph

Search for Another Location

Airport or City:

Trip Planner

Search our weather history database for the weather conditions in past years. The results will help you decide how hot, cold, wet, or windy it might be!

Date:

Astronomy

Apr. 28, 2013 Rise Set
Actual Time 6:40 AM EDT 8:10 PM EDT
Civil Twilight 6:13 AM EDT 8:37 PM EDT
Nautical Twilight 5:41 AM EDT 9:10 PM EDT
Astronomical Twilight 5:07 AM EDT 9:44 PM EDT
Moon 11:35 PM EDT (4/28) 8:59 AM EDT (4/28)
Length of Visible Light 14h 24m
Length of Day
13h 30m
Waning Gibbous, 89% of the Moon is Illuminated
Apr 28
Waning Gibbous
May 2
Last Quarter
May 9
New
May 18
First Quarter
May 25
Full

Hourly Weather History & Observations

Time (EDT) Temp. Dew Point Humidity Pressure Visibility Wind Dir Wind Speed Gust Speed Precip Events Conditions
12:15 AM 55.4 °F 55.4 °F 100% 30.25 in 7.0 mi NNE 4.6 mph - N/A   Overcast
12:35 AM 55.4 °F 55.4 °F 100% 30.25 in 7.0 mi NNE 3.5 mph - N/A   Overcast
12:55 AM 55.4 °F 55.4 °F 100% 30.25 in 5.0 mi North 4.6 mph - N/A Rain Light Rain
1:15 AM 55.4 °F 55.4 °F 100% 30.25 in 7.0 mi North 3.5 mph - N/A Rain Light Rain
1:35 AM 55.4 °F 55.4 °F 100% 30.25 in 5.0 mi North 3.5 mph - N/A   Overcast
2:15 AM 55.4 °F 55.4 °F 100% 30.22 in 5.0 mi Calm Calm - N/A   Mostly Cloudy
2:35 AM 55.4 °F 55.4 °F 100% 30.22 in 5.0 mi NNW 3.5 mph - N/A   Mostly Cloudy
2:55 AM 55.4 °F 55.4 °F 100% 30.20 in 5.0 mi NE 4.6 mph - N/A   Mostly Cloudy
3:15 AM 55.4 °F 55.4 °F 100% 30.21 in 7.0 mi Calm Calm - N/A   Mostly Cloudy
3:35 AM 55.4 °F 55.4 °F 100% 30.19 in 5.0 mi East 3.5 mph - N/A   Mostly Cloudy
3:55 AM 55.4 °F 55.4 °F 100% 30.20 in 4.0 mi North 3.5 mph - N/A   Drizzle
4:15 AM 55.4 °F 55.4 °F 100% 30.20 in 4.0 mi Calm Calm - N/A Rain Rain
4:35 AM 55.4 °F 55.4 °F 100% 30.23 in 5.0 mi WNW 4.6 mph - N/A Rain Light Rain
4:55 AM 55.4 °F 55.4 °F 100% 30.21 in 7.0 mi North 4.6 mph - N/A   Overcast
5:15 AM 55.4 °F 55.4 °F 100% 30.21 in 5.0 mi Calm Calm - N/A Rain Light Rain
5:35 AM 55.4 °F 55.4 °F 100% 30.20 in 5.0 mi Calm Calm - N/A   Mostly Cloudy
5:55 AM 55.4 °F 55.4 °F 100% 30.20 in 4.0 mi Calm Calm - N/A Rain Light Rain
6:15 AM 55.4 °F 55.4 °F 100% 30.19 in 4.0 mi Calm Calm - N/A   Mostly Cloudy
6:35 AM 55.4 °F 55.4 °F 100% 30.18 in 5.0 mi Calm Calm - N/A   Overcast
6:55 AM 55.4 °F 55.4 °F 100% 30.18 in 7.0 mi Calm Calm - N/A   Mostly Cloudy
7:15 AM 55.4 °F 55.4 °F 100% 30.20 in 7.0 mi Calm Calm - N/A Rain Light Rain
7:35 AM 55.4 °F 55.4 °F 100% 30.18 in 5.0 mi ENE 4.6 mph - N/A Rain Light Rain
7:55 AM 55.4 °F 55.4 °F 100% 30.18 in 7.0 mi ENE 3.5 mph - N/A Rain Light Rain
8:15 AM 55.4 °F 55.4 °F 100% 30.18 in 7.0 mi ENE 3.5 mph - N/A Rain Rain
8:35 AM 55.4 °F 55.4 °F 100% 30.19 in 5.0 mi Calm Calm - N/A Rain Light Rain
9:15 AM 55.4 °F 55.4 °F 100% 30.21 in 3.0 mi West 5.8 mph - N/A Rain Heavy Rain
9:35 AM 55.4 °F 55.4 °F 100% 30.20 in 4.0 mi Calm Calm - N/A Rain Heavy Rain
9:55 AM 55.4 °F 55.4 °F 100% 30.19 in 4.0 mi North 3.5 mph - N/A Rain Rain
10:15 AM 55.4 °F 55.4 °F 100% 30.19 in 3.0 mi NE 3.5 mph - N/A   Drizzle
10:35 AM 55.4 °F 55.4 °F 100% 30.18 in 4.0 mi NNE 6.9 mph - N/A   Drizzle
10:55 AM 55.4 °F 55.4 °F 100% 30.18 in 4.0 mi North 6.9 mph - N/A Rain Light Rain
11:15 AM 55.4 °F 55.4 °F 100% 30.19 in 3.0 mi North 9.2 mph - N/A Rain Heavy Rain
11:35 AM 53.6 °F 53.6 °F 100% 30.19 in 5.0 mi North 12.7 mph 16.1 mph N/A Rain Rain
11:55 AM 53.6 °F 53.6 °F 100% 30.19 in 4.0 mi North 11.5 mph - N/A Rain Rain
12:15 PM 53.6 °F 53.6 °F 100% 30.17 in 4.0 mi NNE 9.2 mph - N/A Rain Rain
12:35 PM 53.6 °F 53.6 °F 100% 30.17 in 7.0 mi NNE 10.4 mph - N/A Rain Rain
12:55 PM 53.6 °F 53.6 °F 100% 30.18 in 3.0 mi North 6.9 mph - N/A Rain Rain
1:15 PM 55.4 °F 55.4 °F 100% 30.16 in 7.0 mi NE 6.9 mph - N/A Rain Light Rain
1:35 PM 55.4 °F 55.4 °F 100% 30.16 in 10.0 mi NNE 6.9 mph - N/A Rain Light Rain
1:55 PM 55.4 °F 55.4 °F 100% 30.15 in 7.0 mi NNE 9.2 mph - N/A Rain Rain
2:15 PM 55.4 °F 55.4 °F 100% 30.13 in 7.0 mi NE 6.9 mph - N/A Rain Light Rain
2:35 PM 55.4 °F 55.4 °F 100% 30.13 in 10.0 mi NNE 8.1 mph - N/A Rain Rain
2:55 PM 55.4 °F 55.4 °F 100% 30.12 in 3.0 mi NE 5.8 mph - N/A Rain Heavy Rain
3:15 PM 55.4 °F 55.4 °F 100% 30.11 in 10.0 mi NE 5.8 mph - N/A Rain Rain
3:35 PM 55.4 °F 55.4 °F 100% 30.11 in 10.0 mi NNE 4.6 mph - N/A Rain Light Rain
3:55 PM 55.4 °F 55.4 °F 100% 30.12 in 3.0 mi NNW 3.5 mph - N/A Rain Heavy Rain
4:15 PM 55.4 °F 55.4 °F 100% 30.10 in 3.0 mi NNE 4.6 mph - N/A Rain Heavy Rain
4:35 PM 55.4 °F 55.4 °F 100% 30.10 in 1.8 mi North 3.5 mph - N/A Rain Heavy Rain
4:55 PM 55.4 °F 55.4 °F 100% 30.09 in 4.0 mi NE 5.8 mph - N/A Rain Rain
5:15 PM 55.4 °F 55.4 °F 100% 30.09 in 3.0 mi North 4.6 mph - N/A Rain Heavy Rain
5:35 PM 55.4 °F 55.4 °F 100% 30.08 in 7.0 mi ENE 4.6 mph - N/A Rain Rain
5:55 PM 55.4 °F 55.4 °F 100% 30.08 in 7.0 mi North 4.6 mph - N/A Rain Rain
6:15 PM 55.4 °F 55.4 °F 100% 30.08 in 4.0 mi NE 3.5 mph - N/A Rain Rain
6:35 PM 55.4 °F 55.4 °F 100% 30.09 in 10.0 mi NNE 4.6 mph - N/A Rain Light Rain
6:55 PM 55.4 °F 55.4 °F 100% 30.09 in 7.0 mi WSW 11.5 mph - N/A Rain Rain
7:15 PM 55.4 °F 55.4 °F 100% 30.09 in 10.0 mi NW 6.9 mph - N/A Rain Rain
7:35 PM 55.4 °F 55.4 °F 100% 30.07 in 10.0 mi NNE 6.9 mph - N/A Rain Light Rain
7:55 PM 55.4 °F 55.4 °F 100% 30.07 in 10.0 mi NNE 8.1 mph - N/A Rain Light Rain
8:15 PM 55.4 °F 55.4 °F 100% 30.08 in 10.0 mi North 8.1 mph - N/A Rain Rain
8:35 PM 55.4 °F 55.4 °F 100% 30.08 in 10.0 mi NNE 5.8 mph - N/A Rain Light Rain
8:55 PM 55.4 °F 55.4 °F 100% 30.07 in 10.0 mi NNE 6.9 mph - N/A   Light Drizzle
9:15 PM 55.4 °F 55.4 °F 100% 30.06 in 10.0 mi NNE 5.8 mph - N/A   Mostly Cloudy
9:35 PM 55.4 °F 55.4 °F 100% 30.06 in 10.0 mi Calm Calm - N/A   Scattered Clouds
9:55 PM 55.4 °F 55.4 °F 100% 30.06 in 10.0 mi Calm Calm - N/A   Mostly Cloudy
10:15 PM 55.4 °F 55.4 °F 100% 30.06 in 10.0 mi Calm Calm - N/A   Mostly Cloudy
10:35 PM 55.4 °F 55.4 °F 100% 30.07 in 10.0 mi Calm Calm - N/A   Mostly Cloudy
10:55 PM 55.4 °F 55.4 °F 100% 30.07 in 10.0 mi Calm Calm - N/A   Overcast
11:15 PM 55.4 °F 55.4 °F 100% 30.07 in 10.0 mi Calm Calm - N/A   Overcast
11:35 PM 55.4 °F 55.4 °F 100% 30.06 in 10.0 mi Calm Calm - N/A   Overcast
11:55 PM 55.4 °F 55.4 °F 100% 30.06 in 10.0 mi Calm Calm - N/A   Light Drizzle